Home   Weather   Kitakyushu   Past weeks
Flag for Japan

Past Weather in Kitakyushu, Japan — Yesterday and Last 2 Weeks

Now
73 °F

Sunny.


Feels Like: 76 °F
Forecast: 82 / 65 °F
Wind: 5 mph from North

Location: Kitakyushu Airport

Current Time: May 24, 2019 at 12:31:19 pm

Latest Report: May 24, 2019 at 12:00 pm


Visibility: 10 mi

Pressure: 29.92 "Hg

Humidity: 65%

Dew Point: 61 °F

Location of KitakyushuLocation

Past Weather in Kitakyushu — Graph

°F

Kitakyushu Temperature Yesterday

Maximum temperature yesterday: 82 °F (at 2:00 pm)
Minimum temperature yesterday: 59 °F (at 5:00 am)
Average temperature yesterday: 70 °F

High & Low Weather Summary for the Past Weeks

 TemperatureHumidityPressure
High82 °F (May 23, 2:00 pm)88% (May 10, 2:00 am)30.01 "Hg (May 10, 2:00 am)
Low57 °F (May 10, 2:00 am)20% (May 23, 3:00 pm)29.59 "Hg (May 20, 2:21 pm)
Average67 °F68%29.86 "Hg
* Reported May 9 11:00 am — May 24 11:00 am, Kitakyushu. Weather by CustomWeather, © 2019

Note: Actual official high and low records may vary slightly from our data, if they occured in-between our weather recording intervals... More about our weather records

Advertising

Kitakyushu Weather History for the Previous 24 Hours

Scroll right to see more
 ConditionsComfort  
Time TempWeatherWind HumidityBarometerVisibility
11:00 am
Fri, May 24
72 °FSunny.5 mph69%29.95 "Hg10 mi
10:00 am73 °FPassing clouds.8 mph65%29.95 "HgN/A
9:00 am70 °FSunny.6 mph73%29.92 "Hg10 mi
8:00 am68 °FSunny.6 mph69%29.92 "Hg10 mi
7:00 am66 °FSunny.7 mph68%29.92 "Hg10 mi
6:00 am64 °FSunny.6 mph78%29.89 "Hg10 mi
5:00 am66 °FClear.8 mph78%29.89 "Hg10 mi
4:00 am66 °FPassing clouds.5 mph68%29.86 "HgN/A
3:00 am68 °FClear.5 mph69%29.86 "Hg10 mi
2:00 am68 °FPassing clouds.5 mph64%29.86 "HgN/A
1:00 am68 °FPassing clouds.5 mph64%29.86 "HgN/A
12:00 am70 °FClear.3 mph60%29.86 "Hg10 mi
11:00 pm
Thu, May 23
72 °FPassing clouds.3 mph41%29.86 "HgN/A
10:00 pm75 °FClear.2 mph36%29.83 "Hg10 mi
9:00 pm75 °FPassing clouds.6 mph34%29.83 "HgN/A
8:00 pm75 °FClear.10 mph31%29.80 "Hg10 mi
7:00 pm79 °FSunny.15 mph23%29.80 "Hg10 mi
6:00 pm79 °FSunny.14 mph24%29.77 "Hg10 mi
5:00 pm81 °FPassing clouds.17 mph21%29.77 "HgN/A
4:00 pm81 °FSunny.20 mph20%29.77 "Hg10 mi
3:00 pm82 °FSunny.13 mph20%29.80 "Hg10 mi
2:00 pm82 °FSunny.6 mph21%29.80 "Hg10 mi
1:00 pm72 °FPassing clouds.3 mph61%29.83 "HgN/A
12:00 pm70 °FSunny.3 mph69%29.83 "Hg10 mi
Weather by CustomWeather, © 2019

See weather overview